Manchester, NH

1:13 AM EDT on August 23, 2017 (GMT -0400)
Manchester

Weather History for KMHT - April, 2013

Change the Weather History Date:

Saturday, April 27, 2013

  Actual Average Record
Temperature  
Mean Temperature 50 °F 52 °F  
Max Temperature 66 °F 63 °F 90 °F (1962)
Min Temperature 37 °F 41 °F 25 °F (1958)
Degree Days  
Heating Degree Days 14 13  
Month to date heating degree days 497  
Since 1 July heating degree days 6057  
Cooling Degree Days 0 0  
Month to date cooling degree days 0  
Year to date cooling degree days 0  
Moisture  
Dew Point 32 °F    
Average Humidity 49    
Maximum Humidity 83    
Minimum Humidity 26    
Precipitation  
Precipitation 0.00 in 0.10 in 1.02 in (1973)
Month to date precipitation 3.57  
Year to date precipitation 13.70  
Snow  
Snow 0.00 in - - ()
Month to date snowfall  
Since 1 July snowfall  
Snow Depth -    
Sea Level Pressure  
Sea Level Pressure 30.39 in    
Wind  
Wind Speed 3 mph (SE)    
Max Wind Speed 18 mph    
Max Gust Speed -    
Visibility 10 miles    
Events      
T = Trace of Precipitation, MM = Missing Value Source: NWS Daily Summary

Daily Weather History Graph

Daily Weather History Graph

Search for Another Location

Airport or City:

Trip Planner

Search our weather history database for the weather conditions in past years. The results will help you decide how hot, cold, wet, or windy it might be!

Date:

Astronomy

Apr. 27, 2013 Rise Set
Actual Time 5:45 AM EDT 7:42 PM EDT
Civil Twilight 5:14 AM EDT 8:13 PM EDT
Nautical Twilight 4:37 AM EDT 8:50 PM EDT
Astronomical Twilight 3:56 AM EDT 9:31 PM EDT
Moon 10:11 PM EDT (4/27) 6:58 AM EDT (4/27)
Length of Visible Light 14h 58m
Length of Day
13h 57m
Waning Gibbous, 95% of the Moon is Illuminated
Apr 27
Waning Gibbous
May 2
Last Quarter
May 9
New
May 18
First Quarter
May 25
Full

Hourly Weather History & Observations

Time (EDT) Temp. Windchill Dew Point Humidity Pressure Visibility Wind Dir Wind Speed Gust Speed Precip Events Conditions
12:53 AM 43.0 °F - 33.1 °F 68% 30.46 in 10.0 mi Calm Calm - N/A   Scattered Clouds
1:53 AM 41.0 °F 39.0 °F 33.1 °F 73% 30.45 in 10.0 mi NNW 3.5 mph - N/A   Scattered Clouds
2:53 AM 41.0 °F - 34.0 °F 76% 30.45 in 10.0 mi Calm Calm - N/A   Clear
3:53 AM 41.0 °F - 33.1 °F 73% 30.44 in 10.0 mi Calm Calm - N/A   Partly Cloudy
4:53 AM 39.0 °F - 33.1 °F 79% 30.44 in 10.0 mi Calm Calm - N/A   Partly Cloudy
5:53 AM 37.9 °F - 33.1 °F 83% 30.45 in 10.0 mi Calm Calm - N/A   Partly Cloudy
6:53 AM 39.9 °F 37.8 °F 33.1 °F 77% 30.45 in 10.0 mi North 3.5 mph - N/A   Clear
7:53 AM 45.0 °F 41.2 °F 34.0 °F 65% 30.45 in 10.0 mi North 6.9 mph - N/A   Clear
8:53 AM 50.0 °F - 34.0 °F 54% 30.45 in 10.0 mi North 6.9 mph - N/A   Clear
9:53 AM 55.0 °F - 34.0 °F 45% 30.44 in 10.0 mi Calm Calm - N/A   Partly Cloudy
10:53 AM 59.0 °F - 32.0 °F 36% 30.43 in 10.0 mi Calm Calm - N/A   Partly Cloudy
11:53 AM 60.1 °F - 33.1 °F 36% 30.42 in 10.0 mi Variable 3.5 mph - N/A   Scattered Clouds
12:53 PM 61.0 °F - 30.0 °F 31% 30.40 in 10.0 mi Calm Calm - N/A   Scattered Clouds
1:53 PM 63.0 °F - 30.0 °F 29% 30.38 in 10.0 mi Variable 3.5 mph - N/A   Scattered Clouds
2:53 PM 64.9 °F - 28.9 °F 26% 30.35 in 10.0 mi Variable 3.5 mph - N/A   Scattered Clouds
3:53 PM 64.9 °F - 30.0 °F 27% 30.32 in 10.0 mi WSW 6.9 mph - N/A   Scattered Clouds
4:53 PM 64.0 °F - 30.0 °F 28% 30.31 in 10.0 mi South 6.9 mph - N/A   Partly Cloudy
5:53 PM 64.9 °F - 28.9 °F 26% 30.30 in 10.0 mi South 5.8 mph - N/A   Scattered Clouds
6:53 PM 62.1 °F - 30.9 °F 31% 30.30 in 10.0 mi SE 18.4 mph - N/A   Partly Cloudy
7:53 PM 57.9 °F - 30.0 °F 35% 30.32 in 10.0 mi SE 8.1 mph - N/A   Partly Cloudy
8:53 PM 55.0 °F - 30.9 °F 40% 30.32 in 10.0 mi SE 4.6 mph - N/A   Mostly Cloudy
9:53 PM 53.1 °F - 32.0 °F 45% 30.34 in 10.0 mi ESE 3.5 mph - N/A   Scattered Clouds
10:53 PM 51.1 °F - 33.1 °F 50% 30.35 in 10.0 mi SE 4.6 mph - N/A   Partly Cloudy
11:53 PM 50.0 °F - 33.1 °F 52% 30.35 in 10.0 mi SSE 3.5 mph - N/A   Scattered Clouds